User: anonymous   Login
Location: Voyageurs National Park
(48.5020°N, 92.9292°W)
Time: 06:31:29
(UTC-05:00)
Language:

Terra - Orbit

View from above orbital plane
View from above orbital plane
View from above satellite
View from above satellite

Ground track
Ground track

The orbit data is extracted from the following two-line orbital elements,

1 25994U 99068A   15142.19243573  .00000476  00000-0  11576-3 0  9998
2 25994 098.2121 217.1118 0001318 109.8828 250.2522 14.57107870820439
Epoch (UTC): 22 May 2015 04:37:06
Eccentricity: 0.0001318
inclination: 98.2121°
perigee height: 701 km
apogee height: 703 km
right ascension of ascending node: 217.1118°
argument of perigee: 109.8828°
revolutions per day: 14.57107870
mean anomaly at epoch: 250.2522°
orbit number at epoch: 82043

The dashed part of the orbit path shows where the satellite is in the earth's shadow,  

DLR